Location: *
(43.4667°N, 11.6833°E)
Time: 13:09:14
(UTC+00:00)

SOZ - Pass Details

Date: 19 July 2019
Orbit: 308 x 16635 km, 51.5° (Epoch: 22 August)

Event Time Altitude Azimuth Distance (km) Brightness Sun altitude
Rises 20:26:33 0° 238° (WSW) 2,871 9.1 -14.5°
Reaches altitude 10° 20:29:13 10° 239° (WSW) 1,461 7.6 -14.8°
Maximum altitude 20:31:48 84° 329° (NNW) 319 4.1 -15.1°
Drops below altitude 10° 20:34:01 10° 57° (ENE) 1,252 7.1 -15.4°
Sets 20:36:05 0° 58° (ENE) 2,362 8.5 -15.6°
